Weather in Bigadic

Turkey     39°23′34″N   28°07′52″E
temp.,
°C
wind,
m/s
gust,
m/s
humid.,
%
clouds,
%
prec.,
mm/h
press.,
hPa
HPBL,
m
8 march, mon
mon800:000nne009619 0.0 102242
03:000n119330 0.0 102170
06:00−1ssw009330 0.0 102150
09:00+2e017815 0.0 1020191
12:00+7w21460 0.0 1020567
15:00+10wnw22333 0.0 1017801
18:00+8nnw224966 0.0 1016254
21:00+5e225383 0.0 101722
9 march, tue
tue900:00+4se1157100 0.0 101822
03:00+4ene1159100 0.0 101822
06:00+3e1263100 0.0 101822
09:00+5ne1158100 0.0 101872
12:00+12nne233879 0.0 1017841
15:00+15nne233044 0.0 10161351
18:00+13n23450 0.0 1015203
21:00+6ene11710 0.0 101622
10 march, wed
wed1000:00+5e01730 0.0 101722
03:00+4ene116938 0.0 101622
06:00+4e1164100 0.0 101523
09:00+7e0156100 0.0 101538
12:00+14wnw1143100 0.0 1013375
15:00+16wsw3541100 0.0 1012965
18:00+15wnw25531 0.0 1011508
21:00+11sw116731 0.0 101324
11 march, thu
thu1100:00+7wnw118452 0.0 101422
03:00+5w119169 0.0 101422
06:00+5nw129398 0.1 1014106
09:00+6wnw229299 0.7 1014194
12:00+6nnw2394100 2.6 1014252
15:00+5n2494100 9.2 1015463
18:00+5nnw3788100 1.0 1016591
21:00+2nnw4109085 1.1 1020610
12 march, fri
fri1200:00+1n239018 0.0 1023138
03:00−1nne129218 0.0 102424
06:00−1ne22900 0.0 102541
09:00+2ne13760 0.0 1026323
12:00+8nne24440 0.0 1024962
15:00+10nnw33390 0.0 10231132
18:00+8nw23560 0.0 1022487
21:00+4ese017432 0.0 102222